• Join FlightAware (Why Join?)
  • Login
  • US Flag GB Flag 
15:37 EDT


 

Airport Tracker/Info


-or-


 

Live Flight TrackerFlight Track Log ✈ CPT7773 ✈ 18-Oct-2013 ✈ KCOD - KCPR

Flight Track Log - Related Links

Times and Time Zones

All times are in EDT time to prevent confusion due to time zone crossing. See the CPT7773 flight status page for this flight to view local times or setup timezone preferences in your user account.

Time Position Orientation Groundspeed Altitude Reporting Facility
EDT Latitude Longitude Course Direction KTS MPH feet Rate Location/Type
20:02 44.5372 -108.9708 133° Southeast 130 150 6,400  Level Salt Lake Center
20:03 44.5250 -108.9214 109° East 136 157 7,500 960 Climbing Salt Lake Center
20:04 44.5150 -108.8653 104° East 141 162 8,500 960 Climbing Salt Lake Center
20:05 44.5042 -108.8064 104° East 149 171 9,500 1,020 Climbing Salt Lake Center
20:06 44.4861 -108.7508 114° Southeast 154 177 10,600 660 Climbing Salt Lake Center
20:07 44.4458 -108.6931 134° Southeast 164 189 10,900 180 Climbing Salt Lake Center
20:08 44.3205 -108.6941 133° Southeast  Level Estimated
20:08 44.4097 -108.6375 132° Southeast 178 205 11,000  Level Salt Lake Center
20:10 44.3739 -108.5828 132° Southeast 186 214 11,000  Level Salt Lake Center
20:11 44.3383 -108.5278 132° Southeast 189 217 11,000  Level Salt Lake Center
20:12 44.3028 -108.4722 132° Southeast 191 220 11,000  Level Salt Lake Center
20:13 44.2658 -108.4164 133° Southeast 193 222 11,000  Level Salt Lake Center
20:14 44.2222 -108.3494 132° Southeast 195 224 11,000  Level Salt Lake Center
20:15 44.1861 -108.2942 132° Southeast 195 224 11,000  Level Salt Lake Center
20:16 44.1486 -108.2367 132° Southeast 197 227 11,000  Level Salt Lake Center
20:17 44.1125 -108.1792 131° Southeast 198 228 11,000  Level Salt Lake Center
20:18 44.0761 -108.1250 133° Southeast 196 226 11,000  Level Salt Lake Center
20:19 44.0392 -108.0683 132° Southeast 196 226 11,000  Level Salt Lake Center
20:20 44.0019 -108.0119 133° Southeast 198 228 11,100  Climbing Salt Lake Center
20:21 43.9589 -107.9450 132° Southeast 197 227 11,100 -60 Level Salt Lake Center
20:22 43.9269 -107.8856 127° Southeast 194 223 11,000 -60 Descending Salt Lake Center
20:23 43.8961 -107.8244 125° Southeast 193 222 11,000  Level Salt Lake Center
20:24 43.8658 -107.7622 124° Southeast 194 223 11,100  Climbing Salt Lake Center
20:25 43.8339 -107.7017 126° Southeast 195 224 11,000 -60 Descending Salt Lake Center
20:26 43.8025 -107.6406 125° Southeast 195 224 11,000  Level Salt Lake Center
20:27 43.7717 -107.5817 126° Southeast 193 222 11,000  Level Salt Lake Center
20:28 43.7328 -107.5083 126° Southeast 195 224 11,000  Level Salt Lake Center
20:29 43.7019 -107.4458 124° Southeast 196 226 11,000  Level Salt Lake Center
20:30 43.6694 -107.3850 126° Southeast 197 227 11,000  Level Salt Lake Center
20:31 43.6381 -107.3236 125° Southeast 196 226 11,000  Level Salt Lake Center
20:32 43.6064 -107.2611 125° Southeast 197 227 11,000  Level Salt Lake Center
20:33 43.5733 -107.1983 126° Southeast 199 229 11,000  Level Salt Lake Center
20:34 43.5356 -107.1231 125° Southeast 199 229 11,000  Level Salt Lake Center
20:35 43.5025 -107.0606 126° Southeast 201 231 11,100  Climbing Salt Lake Center
20:36 43.4692 -106.9989 127° Southeast 202 232 11,000 -60 Descending Salt Lake Center
20:37 43.4350 -106.9361 127° Southeast 205 236 11,000  Level Salt Lake Center
20:38 43.3922 -106.8828 138° Southeast 199 229 11,000  Level Salt Lake Center
20:39 43.3458 -106.8453 150° Southeast 201 231 11,000 -300 Level Salt Lake Center
20:40 43.2903 -106.7989 149° Southeast 207 238 10,500 -480 Descending Salt Lake Center
20:41 43.2425 -106.7575 148° Southeast 211 243 10,100 -420 Descending Salt Lake Center
20:42 43.1878 -106.7083 147° Southeast 211 243 9,700 -540 Descending Salt Lake Center
20:43 43.1436 -106.6639 144° Southeast 208 239 9,000 -540 Descending Salt Lake Center
20:44 43.0997 -106.6206 144° Southeast 206 237 8,600 -540 Descending Salt Lake Center
20:46 43.0492 -106.5711 144° Southeast 203 234 8,000 -600 Descending Salt Lake Center
20:47 42.9861 -106.5083 144° Southeast 197 227 7,200 -540 Descending Denver Center
20:48 42.9531 -106.4728 142° Southeast 195 224 6,800 -420 Descending Denver Center